DW2199 Weather Reports


Display with metric or nautical units.
time (UTC)temp
F
wind
direction
speed
MPH
gust
MPH
rain 1hr
in
rain 24hr
in
rain mn
in
humidity
%
barometer
mb
20260508030048 38 207 0.0 1.0 0.00 0.00 0.00 82 1009.0
20260508024535 39 207 0.0 0.0 0.00 0.00 0.00 80 1009.0
20260508023032 39 207 0.0 1.0 0.00 0.00 0.00 80 1009.0
20260508021512 39 207 0.0 0.0 0.00 0.00 0.00 79 1008.9
20260508020009 40 207 0.0 0.0 0.00 0.00 0.00 78 1008.9
20260508014557 41 207 0.0 0.0 0.00 0.00 0.00 77 1008.7
20260508013103 42 207 0.0 0.0 0.00 0.00 0.00 75 1008.6
20260508011551 42 207 0.0 0.0 0.00 0.00 0.00 74 1008.5
20260508010048 43 207 0.0 1.0 0.00 0.00 0.00 71 1008.3
20260508004544 44 207 0.0 1.0 0.00 0.00 0.00 68 1008.2
20260508003039 46 207 0.0 1.0 0.00 0.00 0.00 65 1007.9
20260508001538 47 207 0.0 0.0 0.00 0.00 0.00 62 1008.0
20260508000038 49 207 0.0 1.0 0.00 0.00 0.00 59 1007.9
20260507234524 50 208 0.0 1.0 0.00 0.00 0.00 56 1007.7
20260507233023 51 210 0.0 1.0 0.00 0.00 0.00 49 1007.7
20260507231515 52 194 0.0 1.0 0.00 0.00 0.00 43 1007.5
20260507230007 53 195 0.0 6.0 0.00 0.00 0.00 42 1007.4
20260507224506 54 190 0.0 4.0 0.00 0.00 0.00 41 1007.2
20260507223005 54 196 0.0 2.0 0.00 0.00 0.00 42 1007.2
20260507221507 54 177 0.0 1.0 0.00 0.00 0.00 42 1007.1
20260507220004 55 308 0.0 1.0 0.00 0.00 0.00 40 1007.1
20260507214503 56 180 0.0 5.0 0.00 0.00 0.00 39 1007.1
20260507213003 58 235 0.0 3.0 0.00 0.00 0.00 37 1007.0
20260507211557 58 165 0.0 4.0 0.00 0.00 0.00 37 1006.9
20260507210051 59 201 0.0 2.0 0.00 0.00 0.00 34 1006.8
20260507204556 62 191 0.0 8.0 0.00 0.00 0.00 32 1006.6
20260507203050 66 173 0.0 2.0 0.00 0.00 0.00 30 1006.6
20260507201600 65 354 0.0 5.0 0.00 0.00 0.00 31 1006.8
20260507200052 62 201 0.0 4.0 0.00 0.00 0.00 35 1006.7
20260507194553 64 352 0.0 4.0 0.00 0.00 0.00 31 1007.0
20260507193045 65 198 0.0 9.0 0.00 0.00 0.00 31 1007.0
20260507191601 65 158 2.0 8.0 0.00 0.00 0.00 31 1007.2
20260507190032 65 210 0.0 5.0 0.00 0.00 0.00 31 1007.2
20260507184534 65 155 0.0 6.0 0.00 0.00 0.00 32 1007.3
20260507183037 63 18 2.0 12.0 0.00 0.00 0.00 32 1007.6
20260507181528 64 193 2.0 8.0 0.00 0.00 0.00 35 1007.7
20260507180026 65 354 2.0 9.0 0.00 0.00 0.00 33 1007.8
20260507174532 66 211 0.0 2.0 0.00 0.00 0.00 33 1007.9
20260507173021 64 163 1.0 5.0 0.00 0.00 0.00 35 1007.9
20260507171527 64 191 0.0 7.0 0.00 0.00 0.00 35 1007.9
20260507170006 64 215 0.0 7.0 0.00 0.00 0.00 38 1008.2
20260507164508 62 179 2.0 6.0 0.00 0.00 0.00 39 1008.4
20260507163004 62 194 0.0 2.0 0.00 0.00 0.00 38 1008.6
20260507161501 60 356 0.0 12.0 0.00 0.00 0.00 37 1008.8
20260507160100 61 181 0.0 6.0 0.00 0.00 0.00 40 1008.7
20260507154558 64 198 1.0 6.0 0.00 0.00 0.00 34 1008.9
20260507153054 62 202 1.0 6.0 0.00 0.00 0.00 39 1009.1
20260507151551 60 204 0.0 2.0 0.00 0.00 0.00 41 1009.4
20260507150034 59 225 0.0 8.0 0.00 0.00 0.00 40 1009.3
20260507144528 58 186 0.0 5.0 0.00 0.00 0.00 44 1009.4
20260507143013 56 153 1.0 5.0 0.00 0.00 0.00 43 1009.6
20260507141504 54 335 0.0 9.0 0.00 0.00 0.00 46 1009.5
20260507140043 53 170 2.0 8.0 0.00 0.00 0.00 53 1009.6
20260507134540 52 174 1.0 5.0 0.00 0.00 0.00 53 1009.7
20260507133025 49 186 0.0 4.0 0.00 0.00 0.00 61 1009.9
20260507131520 46 338 0.0 4.0 0.00 0.00 0.00 66 1010.0
20260507130031 45 229 0.0 3.0 0.00 0.00 0.00 74 1010.1
20260507124515 44 32 0.0 4.0 0.00 0.00 0.00 74 1010.0
20260507123015 43 186 0.0 2.0 0.00 0.00 0.00 79 1010.0
20260507121514 42 195 0.0 1.0 0.00 0.00 0.00 82 1010.1
20260507120010 41 193 0.0 1.0 0.00 0.00 0.00 85 1010.0
20260507114508 41 174 0.0 3.0 0.00 0.00 0.00 87 1009.8
20260507113055 40 174 0.0 3.0 0.00 0.00 0.00 91 1009.7
20260507111553 40 204 0.0 1.0 0.00 0.00 0.00 95 1009.4
20260507110052 41 201 0.0 0.0 0.00 0.00 0.00 96 1009.3
20260507104557 41 201 0.0 0.0 0.00 0.00 0.00 96 1008.8
20260507103048 41 201 0.0 0.0 0.00 0.00 0.00 96 1008.6
20260507101546 42 201 0.0 0.0 0.00 0.00 0.00 96 1008.2
20260507100052 43 201 0.0 0.0 0.00 0.00 0.00 96 1008.3
20260507094539 44 201 0.0 1.0 0.00 0.00 0.00 96 1008.4
20260507093027 44 202 0.0 1.0 0.00 0.00 0.00 96 1008.3
20260507091533 44 201 0.0 1.0 0.00 0.00 0.00 96 1008.3
20260507090026 45 201 0.0 1.0 0.00 0.00 0.00 96 1008.1
20260507084525 45 326 0.0 0.0 0.00 0.00 0.00 96 1008.4
20260507083024 45 326 0.0 0.0 0.00 0.00 0.00 96 1008.3
20260507081524 45 326 0.0 0.0 0.00 0.00 0.00 96 1008.4
20260507080022 45 326 0.0 0.0 0.00 0.00 0.00 96 1008.3
20260507074524 45 326 0.0 0.0 0.00 0.00 0.00 96 1008.3
20260507073012 45 326 0.0 0.0 0.00 0.00 0.00 96 1008.7
20260507071520 45 326 0.0 0.0 0.00 0.00 0.00 96 1008.4
20260507070012 45 326 0.0 0.0 0.00 0.00 0.00 96 1008.2
20260507064509 45 326 0.0 0.0 0.00 0.00 0.00 96 1008.3
20260507063009 45 326 0.0 0.0 0.00 0.00 0.00 96 1008.1
20260507061508 45 326 0.0 0.0 0.00 0.00 0.00 96 1008.1
20260507060007 45 326 0.0 0.0 0.00 0.00 0.00 96 1008.2
20260507054507 45 326 0.0 0.0 0.00 0.00 0.00 96 1008.3
20260507053056 45 326 0.0 0.0 0.00 0.00 0.00 96 1008.2
20260507051602 45 326 0.0 0.0 0.00 0.00 0.00 96 1008.6
20260507050044 45 326 0.0 0.0 0.00 0.00 0.00 96 1008.7
20260507044538 44 326 0.0 0.0 0.00 0.00 0.00 96 1008.7
20260507043035 44 326 0.0 0.0 0.00 0.00 0.00 96 1008.5
20260507041535 44 326 0.0 0.0 0.00 0.00 0.00 96 1009.1
20260507040033 44 326 0.0 0.0 0.00 0.00 0.00 96 1008.8
20260507034535 44 326 0.0 0.0 0.00 0.00 0.00 96 1008.9
20260507033031 44 326 0.0 0.0 0.00 0.00 0.00 96 1008.8
20260507031533 45 326 0.0 0.0 0.00 0.00 0.00 96 1008.8